This is the latest recevied weather packets stored in our database for station/object KN4MGS. If no packets are shown the sender has not sent any weather packets the latest 10 day(s).
| Time | Temp. | Humidity | Pressure | Rain* | Wind** | Luminosity | Snow |
|---|---|---|---|---|---|---|---|
| 1777902700 | 18.89° C | 65% | 1021.7 hPa | 0 mm | - | 561 W/m² | - |
| 1777902398 | 17.78° C | 69% | 1021.7 hPa | 0 mm | - | 556 W/m² | - |
| 1777902094 | 17.78° C | 67% | 1021.8 hPa | 0 mm | - | 549 W/m² | - |
| 1777901793 | 17.22° C | 72% | 1021.6 hPa | 0 mm | - | 502 W/m² | - |
| 1777901490 | 16.11° C | 71% | 1021.9 hPa | 0 mm | - | 445 W/m² | - |
| 1777901187 | 16.67° C | 70% | 1021.5 hPa | 0 mm | - | 376 W/m² | - |
| 1777900884 | 16.11° C | 72% | 1021.6 hPa | 0 mm | - | 401 W/m² | - |
| 1777900582 | 15.56° C | 73% | 1021.8 hPa | 0 mm | - | 345 W/m² | - |
| 1777900278 | 15.56° C | 76% | 1021.9 hPa | 0 mm | - | 308 W/m² | - |
| 1777899975 | 15° C | 73% | 1021.7 hPa | 0 mm | - | 281 W/m² | - |
| 1777899672 | 15.56° C | 75% | 1021.9 hPa | 0 mm | - | 154 W/m² | - |
| 1777899370 | 15.56° C | 74% | 1021.8 hPa | 0 mm | - | 126 W/m² | - |
| 1777899067 | 15° C | 74% | 1021.6 hPa | 0 mm | - | 146 W/m² | - |
| 1777898764 | 13.89° C | 79% | 1021.5 hPa | 0 mm | - | 177 W/m² | - |
| 1777898461 | 13.33° C | 81% | 1021.4 hPa | 0 mm | - | 111 W/m² | - |
| 1777898159 | 13.89° C | 78% | 1021.6 hPa | 0 mm | - | 99 W/m² | - |
| 1777897856 | 13.33° C | 78% | 1021.4 hPa | 0 mm | - | 71 W/m² | - |
| 1777897552 | 12.78° C | 80% | 1021.3 hPa | 0 mm | - | 50 W/m² | - |
| 1777897248 | 11.67° C | 84% | 1021.2 hPa | 0 mm | - | 48 W/m² | - |
| 1777896944 | 10.56° C | 89% | 1021.2 hPa | 0 mm | - | 45 W/m² | - |
| 1777896641 | 8.89° C | 91% | 1021.3 hPa | 0 mm | - | 43 W/m² | - |
| 1777896338 | 8.33° C | 94% | 1021.5 hPa | 0 mm | - | 42 W/m² | - |
| 1777896036 | 7.78° C | 95% | 1021.4 hPa | 0 mm | - | 40 W/m² | - |
| 1777895733 | 7.78° C | 97% | 1021.4 hPa | 0 mm | - | 39 W/m² | - |
| 1777895430 | 7.78° C | 99% | 1021.3 hPa | 0 mm | - | 37 W/m² | - |
* Rain latest hour (hover to see other rain measurements)
** Current wind speed in m/s (hover to see current wind gust speed)